Lexington Weather

Lexington, Massachusetts, USA

77°F
7/25/2024 11:47am 
  • Lexington Conditions: Mostly cloudy
  • Temperature: 76.8°F / 24.9°CWarmer 0.9°F than last hour.
  • Dew Point: 72.0°FDecreased 0.1°Fsince last hour.
  • Relative Humidity: 85%Decreased 3.0% since last hour.
  • Wind: Wind from WSW WSW 1 mph, 10-min avg: 3 mph, gust: 10 mph
  • Barometer: 29.94 inFalling 0.02  inHg/hr Falling Slowly
  • Visibility: 10 miles
  • Rain Today: 0.00 in
  •   

Regional Weather Roundup
for Boston, MA

        
000
ASUS41 KBOX 220810
RWRBOX

REGIONAL WEATHER ROUNDUP
NATIONAL WEATHER SERVICE BOSTON/NORTON MA
400 AM EDT MON JUL 22 2024

NOTE:  "FAIR" INDICATES FEW OR NO CLOUDS BELOW 12,000 FEET WITH NO 
SIGNIFICANT WEATHER AND/OR OBSTRUCTIONS TO VISIBILITY.

MAZALL-220900-
EASTERN MASSACHUSETTS
  
CITY           SKY/WX    TMP DP  RH WIND       PRES   REMARKS
BOSTON         PTCLDY    63  60  90 CALM      30.06S                  
BEVERLY        CLEAR     62  59  90 CALM      30.06R                  
LAWRENCE       CLEAR     63  61  93 CALM      30.09R                  
BEDFORD        PTCLDY    62  60  93 CALM      30.06R                  
NORWOOD        PTCLDY    65  64  97 CALM      30.06S                  
MARSHFIELD     CLOUDY    64  63  94 CALM      30.05S                  
PLYMOUTH       PTCLDY    66  63  90 CALM      30.05S                  
TAUNTON        PTCLDY    65  62  90 CALM      30.05S                  
NEW BEDFORD    PTCLDY    66  65  96 CALM      30.04S                  
$$

MAZALL-220900-
CAPE COD AND THE ISLANDS
  
CITY           SKY/WX    TMP DP  RH WIND       PRES   REMARKS
FALMOUTH       CLEAR     66  64  94 CALM      30.07S                  
HYANNIS        PTCLDY    66  65  96 CALM      30.04S                  
CHATHAM        PTCLDY    69  67  93 CALM      30.05F                  
PROVINCETOWN   MOCLDY    64  64 100 CALM      30.06S                  
NANTUCKET      PTCLDY    68  68 100 W3        30.05F FOG              
MARTHAS VNYRD  PTCLDY    68  66  93 W3        30.05S                  
$$
 
MAZALL-220900-
CENTRAL AND WESTERN MASSACHUSETTS
  
CITY           SKY/WX    TMP DP  RH WIND       PRES   REMARKS
WORCESTER      PTCLDY    67  62  84 NW6       30.10S                  
FITCHBURG      PTCLDY   N/A N/A N/A CALM      30.09R                  
ORANGE         PTCLDY    61  59  93 CALM      30.10S                  
SPRINGFIELD    CLEAR     62  61  96 CALM      30.05S FOG              
WESTFIELD      PTCLDY    64  63  96 CALM      30.08S                  
NORTH ADAMS    CLOUDY    62  62 100 CALM      30.10F                  
PITTSFIELD     FOG       63  62  97 CALM      30.10S VSB 1/4          
$$
 
RIZALL-220900-
RHODE ISLAND
  
CITY           SKY/WX    TMP DP  RH WIND       PRES   REMARKS
PROVIDENCE     PTCLDY    70  64  81 CALM      30.06F                  
NEWPORT        PTCLDY    67  65  93 CALM      30.06S                  
BLOCK ISLAND   MOCLDY    69  66  90 W8          N/A                   
SMITHFIELD     PTCLDY    63  32  31 CALM      30.08S                  
WESTERLY       PTCLDY    69  66  90 CALM      30.06S                  
$$
 
CTZALL-220900-
CONNECTICUT
  
CITY           SKY/WX    TMP DP  RH WIND       PRES   REMARKS
BRADLEY INTL   MOCLDY    69  65  86 N3        30.07S                  
HARTFORD       PTCLDY    69  66  90 CALM      30.05F                  
PLAINVILLE     MOSUNNY   67  66  96 CALM      30.06F                  
BRIDGEPORT     MOCLDY    72  68  87 CALM      30.05F                  
DANBURY        PTCLDY    68  65  90 CALM      30.08F                  
GROTON         PTCLDY    71  70  96 CALM      30.05F                  
NEW HAVEN      MOCLDY    72  69  90 CALM      30.06F                  
CHESTER        PTCLDY    68  68 100 CALM      30.07F                  
MERIDEN        MOCLDY    68  64  87 CALM      30.06F                  
WILLIMANTIC    PTCLDY    65  64  97 N5        30.07F                  
OXFORD         MOCLDY    65  64  97 CALM      30.09F                  
$$

MEZ002-015-021-024-NHZ003-005-008-011-012-014-VTZ005-008-220900-
NORTHERN NEW ENGLAND
  
CITY           SKY/WX    TMP DP  RH WIND       PRES   REMARKS
PORTLAND ME    CLEAR     60  58  92 CALM      30.07S                  
BANGOR ME      CLEAR     57  49  74 W3        30.03F                  
CONCORD NH     CLEAR     56  55  97 CALM      30.09S                  
MANCHESTER NH  PTCLDY    61  57  87 N3        30.07R                  
NASHUA NH      CLEAR     61  61 100 NW5       30.08S                  
PORTSMOUTH NH  PTCLDY    62  58  85 NW3       30.06S                  
JAFFREY NH     CLEAR     58  55  90 CALM      30.11S                  
KEENE NH       CLEAR     57  57 100 CALM      30.09F                  
BURLINGTON VT  CLEAR     59  56  89 CALM      30.07F                  
MT. WASHINGTON FOG       43  43 100 W41         N/A  VSB 0   WCI  31  
$$

NYZ052-076-220900-
EASTERN NEW YORK
  
CITY           SKY/WX    TMP DP  RH WIND       PRES   REMARKS
ALBANY         CLOUDY    65  64  97 CALM      30.08S FOG              
NEW YORK CITY  MOCLDY    76  67  73 SW3       30.04F                  
$$
 
ANZALL-220900-
MARINE OBSERVATIONS
  
STATION/POSITION TIME  TEMP    WIND        PRES    VSBY  WAVE
                       AIR SEA DIR/SP/G                  HT/PER
                 (UTC) (F)     (DEG/KT/KT) (MB)    (MI)  (FT/S)
BOSTON BUOY      0750   66 65  290/  2/  4 1018.0S         1/10
BUZZARDS BAY     0700   71     270/  9/ 10 1018.0R
NANTUCKET SOUND  0750   74 76  240/  4/  6 1016.9F         0
MASS BAY-STELLWA 0604   64 61  340/  4/  4 1017.7S  1 7/8  1/ 8
ISLE OF SHOALS   0700   68     350/  9/ 10 1017.2S
S OF BLOCK IS    0756      73                N/A           3/ 8
$$

......................KEY.........................
  SKY/WX - SKY CONDITION/PRESENT WEATHER
  TMP    - TEMPERATURE IN FAHRENHEIT
  DWPT   - DEWPOINT IN FAHRENHEIT
  RH     - RELATIVE HUMIDITY IN PERCENT
  WIND   - DIRECTION AND SPEED IN MPH
  PRES   - MEAN SEA LEVEL PRESSURE IN INCHES OF HG
  WCI    - WIND CHILL INDEX
  VSB    - VISIBILITY IN MILES
  HX     - HEAT INDEX
  TC     - TEMPERATURE IN CELSIUS
  VRB    - VARIABLE WIND DIRECTION
  N/A    - NOT AVAILABLE
  
      

Other recent Regional Weather Roundups

Thu Jul 25, 11:10am EDT

Thu Jul 25, 10:10am EDT

Thu Jul 25, 9:10am EDT

Thu Jul 25, 8:10am EDT

Thu Jul 25, 7:10am EDT

Thu Jul 25, 6:10am EDT

Thu Jul 25, 5:10am EDT

Thu Jul 25, 4:10am EDT

Thu Jul 25, 3:10am EDT

Thu Jul 25, 2:10am EDT

Thu Jul 25, 1:10am EDT

Thu Jul 25, 12:10am EDT

Wed Jul 24, 11:10pm EDT

Wed Jul 24, 10:10pm EDT

Wed Jul 24, 9:10pm EDT

Wed Jul 24, 8:10pm EDT

Wed Jul 24, 7:10pm EDT

Wed Jul 24, 6:10pm EDT

Wed Jul 24, 5:10pm EDT

Wed Jul 24, 4:10pm EDT

Wed Jul 24, 3:10pm EDT

Wed Jul 24, 2:10pm EDT

Wed Jul 24, 1:10pm EDT

Wed Jul 24, 12:10pm EDT

Wed Jul 24, 11:10am EDT

Wed Jul 24, 10:10am EDT

Wed Jul 24, 9:10am EDT

Wed Jul 24, 8:10am EDT

Wed Jul 24, 7:10am EDT

Wed Jul 24, 6:10am EDT

Wed Jul 24, 5:10am EDT

Wed Jul 24, 4:10am EDT

Wed Jul 24, 3:10am EDT

Wed Jul 24, 2:10am EDT

Wed Jul 24, 1:10am EDT

Wed Jul 24, 12:10am EDT

Tue Jul 23, 11:10pm EDT

Tue Jul 23, 10:10pm EDT

Tue Jul 23, 9:10pm EDT

Tue Jul 23, 8:10pm EDT

Tue Jul 23, 7:10pm EDT

Tue Jul 23, 6:10pm EDT

Tue Jul 23, 5:10pm EDT

Tue Jul 23, 4:10pm EDT

Tue Jul 23, 3:10pm EDT

Tue Jul 23, 2:10pm EDT

Tue Jul 23, 1:10pm EDT

Tue Jul 23, 12:10pm EDT

Tue Jul 23, 11:10am EDT

Tue Jul 23, 10:10am EDT

Tue Jul 23, 10:10am EDT

Tue Jul 23, 9:10am EDT

Tue Jul 23, 8:10am EDT

Tue Jul 23, 7:10am EDT

Tue Jul 23, 6:10am EDT

Tue Jul 23, 5:10am EDT

Tue Jul 23, 4:10am EDT

Tue Jul 23, 3:10am EDT

Tue Jul 23, 2:10am EDT

Tue Jul 23, 1:10am EDT

Tue Jul 23, 12:10am EDT

Mon Jul 22, 11:10pm EDT

Mon Jul 22, 10:10pm EDT

Mon Jul 22, 9:10pm EDT

Mon Jul 22, 8:10pm EDT

Mon Jul 22, 7:10pm EDT

Mon Jul 22, 6:10pm EDT

Mon Jul 22, 5:10pm EDT

Mon Jul 22, 4:10pm EDT

Mon Jul 22, 3:10pm EDT

Mon Jul 22, 2:10pm EDT

Mon Jul 22, 1:10pm EDT

Mon Jul 22, 12:10pm EDT

Mon Jul 22, 11:10am EDT

Mon Jul 22, 10:10am EDT

Mon Jul 22, 9:10am EDT

Mon Jul 22, 8:10am EDT

Mon Jul 22, 7:10am EDT

Mon Jul 22, 6:10am EDT

Mon Jul 22, 5:10am EDT

Mon Jul 22, 3:10am EDT

Mon Jul 22, 2:10am EDT

Mon Jul 22, 1:10am EDT

Mon Jul 22, 12:10am EDT

Sun Jul 21, 11:10pm EDT

Sun Jul 21, 10:10pm EDT

Sun Jul 21, 9:10pm EDT

Sun Jul 21, 8:10pm EDT

Sun Jul 21, 7:10pm EDT

Sun Jul 21, 6:10pm EDT

Sun Jul 21, 5:10pm EDT

Sun Jul 21, 4:10pm EDT

Sun Jul 21, 3:10pm EDT

Sun Jul 21, 2:10pm EDT

Sun Jul 21, 1:10pm EDT

Sun Jul 21, 12:10pm EDT

Sun Jul 21, 11:10am EDT

Sun Jul 21, 10:10am EDT

Sun Jul 21, 9:10am EDT

Sun Jul 21, 8:10am EDT

Sun Jul 21, 7:10am EDT

Sun Jul 21, 6:10am EDT

Sun Jul 21, 5:10am EDT

Sun Jul 21, 4:10am EDT

Sun Jul 21, 3:10am EDT

Sun Jul 21, 2:10am EDT

Sun Jul 21, 1:10am EDT

Sun Jul 21, 12:10am EDT

Sat Jul 20, 11:10pm EDT

Sat Jul 20, 10:10pm EDT

Sat Jul 20, 9:10pm EDT

Sat Jul 20, 8:10pm EDT

Sat Jul 20, 7:10pm EDT

Sat Jul 20, 6:10pm EDT

Sat Jul 20, 5:10pm EDT

Sat Jul 20, 4:10pm EDT

Sat Jul 20, 3:10pm EDT

Sat Jul 20, 2:10pm EDT

Sat Jul 20, 1:10pm EDT

Sat Jul 20, 12:10pm EDT

Sat Jul 20, 11:10am EDT

Sat Jul 20, 10:10am EDT

Sat Jul 20, 9:10am EDT

Sat Jul 20, 8:10am EDT

Sat Jul 20, 7:10am EDT

Sat Jul 20, 6:10am EDT

Sat Jul 20, 5:10am EDT

Sat Jul 20, 4:10am EDT

Sat Jul 20, 3:10am EDT

Sat Jul 20, 2:10am EDT

Sat Jul 20, 1:10am EDT

Sat Jul 20, 12:10am EDT

Fri Jul 19, 11:10pm EDT

Fri Jul 19, 10:10pm EDT

Fri Jul 19, 9:10pm EDT

Fri Jul 19, 8:10pm EDT

Fri Jul 19, 7:10pm EDT

Fri Jul 19, 6:10pm EDT

Fri Jul 19, 5:10pm EDT

Fri Jul 19, 4:10pm EDT

Fri Jul 19, 3:10pm EDT

Fri Jul 19, 2:10pm EDT

Fri Jul 19, 1:10pm EDT

Fri Jul 19, 12:10pm EDT

Fri Jul 19, 11:10am EDT

Fri Jul 19, 10:10am EDT

Fri Jul 19, 9:10am EDT

Fri Jul 19, 8:10am EDT

Fri Jul 19, 7:10am EDT

Fri Jul 19, 6:10am EDT

Fri Jul 19, 5:10am EDT

Fri Jul 19, 4:10am EDT

Fri Jul 19, 3:10am EDT

Fri Jul 19, 2:10am EDT

Fri Jul 19, 1:10am EDT

Fri Jul 19, 12:10am EDT

Thu Jul 18, 11:10pm EDT

Thu Jul 18, 10:10pm EDT

Thu Jul 18, 9:10pm EDT

Thu Jul 18, 8:10pm EDT

Thu Jul 18, 7:10pm EDT

Thu Jul 18, 6:10pm EDT

Thu Jul 18, 5:10pm EDT

Thu Jul 18, 4:10pm EDT

Thu Jul 18, 3:10pm EDT

Thu Jul 18, 2:10pm EDT

Thu Jul 18, 1:10pm EDT

Thu Jul 18, 12:10pm EDT